This is the latest recevied weather packets stored in our database for station/object HG6IQI-10. If no packets are shown the sender has not sent any weather packets the latest 10 day(s).
| Time | Temp. | Humidity | Pressure | Rain* | Wind** | Luminosity | Snow |
|---|---|---|---|---|---|---|---|
| 1777654092 | 16.67° C | 33% | 1024.3 hPa | - | - | - | - |
| 1777653192 | 16.67° C | 33% | 1024.4 hPa | - | - | - | - |
| 1777651394 | 16.67° C | 33% | 1024.6 hPa | - | - | - | - |
| 1777650494 | 17.22° C | 32% | 1024.6 hPa | - | - | - | - |
| 1777649594 | 17.22° C | 32% | 1024.8 hPa | - | - | - | - |
| 1777648694 | 17.78° C | 31% | 1024.8 hPa | - | - | - | - |
| 1777647794 | 17.22° C | 31% | 1024.9 hPa | - | - | - | - |
| 1777646894 | 17.22° C | 30% | 1025 hPa | - | - | - | - |
| 1777645993 | 17.22° C | 31% | 1025.1 hPa | - | - | - | - |
| 1777645093 | 17.22° C | 31% | 1025.3 hPa | - | - | - | - |
| 1777644193 | 16.67° C | 31% | 1025.4 hPa | - | - | - | - |
| 1777643293 | 16.67° C | 31% | 1025.5 hPa | - | - | - | - |
| 1777642393 | 16.67° C | 31% | 1025.6 hPa | - | - | - | - |
| 1777641493 | 16.11° C | 32% | 1025.8 hPa | - | - | - | - |
| 1777640593 | 15.56° C | 32% | 1026 hPa | - | - | - | - |
| 1777639693 | 16.11° C | 32% | 1026.1 hPa | - | - | - | - |
| 1777638793 | 15.56° C | 31% | 1026.2 hPa | - | - | - | - |
| 1777637893 | 14.44° C | 32% | 1026.5 hPa | - | - | - | - |
| 1777636992 | 15° C | 32% | 1026.6 hPa | - | - | - | - |
| 1777636092 | 16.11° C | 31% | 1026.8 hPa | - | - | - | - |
| 1777635192 | 15.56° C | 34% | 1026.7 hPa | - | - | - | - |
| 1777634292 | 15° C | 33% | 1027.1 hPa | - | - | - | - |
| 1777633392 | 14.44° C | 33% | 1027.3 hPa | - | - | - | - |
| 1777632492 | 14.44° C | 31% | 1027.4 hPa | - | - | - | - |
| 1777631592 | 14.44° C | 31% | 1027.4 hPa | - | - | - | - |
* Rain since midnight (hover to see other rain measurements)
** Current wind speed in m/s (hover to see current wind gust speed)